contact:dominique.lefevre@mio.osupytheas.fr, maurice.libes@osupytheas.fr, didier.mallarino@osupytheas.fr
Project:EMSO http://www.emso-fr.org/EMSO-France
Depth: 2436.0 m
Title:EMSO Ligure Ouest : Data MII capteur CSTAR
DateTime,Latitude,Longitude,Instrument_Serial,Reference_Counts,Signal_Counts,Corrected_Signal_raw_counts,Calculated_Beam_c_inverse_meters,Internal_thermistor_counts
DateTime,Latitude,Longitude,Instrument_Serial,Reference_Counts,Signal_Counts,Corrected_Signal_raw_counts,Calculated_Beam_c_inverse_meters,Internal_thermistor_counts
2019-06-28T00:00:17,42.805,6.029,CST-1368DR,8872,12415,15506,0.028,551
2019-06-28T00:03:19,42.805,6.029,CST-1368DR,8872,12414,15505,0.029,551
2019-06-28T00:06:20,42.805,6.029,CST-1368DR,8872,12409,15499,0.030,551
2019-06-28T00:09:21,42.805,6.029,CST-1368DR,8871,12415,15508,0.028,551
2019-06-28T00:12:23,42.805,6.029,CST-1368DR,8872,12415,15506,0.028,551
2019-06-28T00:15:24,42.805,6.029,CST-1368DR,8872,12415,15506,0.028,551
2019-06-28T00:18:26,42.805,6.029,CST-1368DR,8871,12414,15506,0.028,550
2019-06-28T00:21:27,42.805,6.029,CST-1368DR,8871,12410,15502,0.029,551
2019-06-28T00:24:29,42.805,6.029,CST-1368DR,8872,12410,15500,0.030,550
2019-06-28T00:27:30,42.805,6.029,CST-1368DR,8872,12413,15504,0.029,551
2019-06-28T00:30:31,42.805,6.029,CST-1368DR,8871,12410,15501,0.030,551
2019-06-28T00:33:33,42.805,6.029,CST-1368DR,8871,12413,15505,0.029,551
2019-06-28T00:36:34,42.805,6.029,CST-1368DR,8871,12411,15503,0.029,551
2019-06-28T00:39:36,42.805,6.029,CST-1368DR,8871,12407,15498,0.030,551
2019-06-28T00:42:37,42.805,6.029,CST-1368DR,8871,12409,15500,0.030,551
2019-06-28T00:45:38,42.805,6.029,CST-1368DR,8871,12413,15506,0.028,551
2019-06-28T00:48:40,42.805,6.029,CST-1368DR,8871,12411,15503,0.029,550
2019-06-28T00:51:41,42.805,6.029,CST-1368DR,8871,12408,15500,0.030,551
2019-06-28T00:54:43,42.805,6.029,CST-1368DR,8871,12412,15504,0.029,551
2019-06-28T00:57:44,42.805,6.029,CST-1368DR,8871,12415,15507,0.028,551
2019-06-28T01:00:45,42.805,6.029,CST-1368DR,8871,12412,15504,0.029,551
2019-06-28T01:03:47,42.805,6.029,CST-1368DR,8871,12414,15506,0.028,551
2019-06-28T01:06:48,42.805,6.029,CST-1368DR,8871,12413,15505,0.029,550
2019-06-28T01:09:50,42.805,6.029,CST-1368DR,8871,12408,15499,0.030,551
2019-06-28T01:12:51,42.805,6.029,CST-1368DR,8871,12412,15505,0.029,551
2019-06-28T01:15:53,42.805,6.029,CST-1368DR,8871,12414,15507,0.028,551
2019-06-28T01:18:54,42.805,6.029,CST-1368DR,8871,12412,15504,0.029,550
2019-06-28T01:21:55,42.805,6.029,CST-1368DR,8871,12411,15502,0.029,551
2019-06-28T01:24:57,42.805,6.029,CST-1368DR,8871,12408,15499,0.030,551
2019-06-28T01:27:58,42.805,6.029,CST-1368DR,8871,12414,15506,0.028,551
2019-06-28T01:31:00,42.805,6.029,CST-1368DR,8871,12412,15504,0.029,551
2019-06-28T01:34:01,42.805,6.029,CST-1368DR,8871,12414,15507,0.028,551
2019-06-28T01:37:02,42.805,6.029,CST-1368DR,8871,12414,15506,0.028,551
2019-06-28T01:40:04,42.805,6.029,CST-1368DR,8871,12411,15502,0.029,550
2019-06-28T01:43:05,42.805,6.029,CST-1368DR,8871,12413,15505,0.029,551
2019-06-28T01:46:07,42.805,6.029,CST-1368DR,8871,12414,15507,0.028,551
2019-06-28T01:49:08,42.805,6.029,CST-1368DR,8871,12409,15500,0.030,551
2019-06-28T01:52:09,42.805,6.029,CST-1368DR,8871,12413,15505,0.029,551
2019-06-28T01:55:11,42.805,6.029,CST-1368DR,8871,12414,15507,0.028,551
2019-06-28T01:58:12,42.805,6.029,CST-1368DR,8871,12414,15507,0.028,551
2019-06-28T02:01:14,42.805,6.029,CST-1368DR,8871,12414,15506,0.028,551
2019-06-28T02:04:15,42.805,6.029,CST-1368DR,8871,12410,15502,0.029,551
2019-06-28T02:07:16,42.805,6.029,CST-1368DR,8871,12414,15506,0.028,551
2019-06-28T02:10:18,42.805,6.029,CST-1368DR,8871,12397,15485,0.034,551
2019-06-28T02:13:19,42.805,6.029,CST-1368DR,8871,12412,15504,0.029,551
2019-06-28T02:16:21,42.805,6.029,CST-1368DR,8871,12409,15500,0.030,551
2019-06-28T02:19:22,42.805,6.029,CST-1368DR,8871,12411,15503,0.029,551
2019-06-28T02:22:24,42.805,6.029,CST-1368DR,8870,12413,15507,0.028,551
2019-06-28T02:25:25,42.805,6.029,CST-1368DR,8870,12410,15504,0.029,551
2019-06-28T02:28:26,42.805,6.029,CST-1368DR,8870,12408,15501,0.030,551
2019-06-28T02:31:28,42.805,6.029,CST-1368DR,8870,12414,15508,0.028,551
2019-06-28T02:34:29,42.805,6.029,CST-1368DR,8870,12412,15506,0.028,551
2019-06-28T02:37:31,42.805,6.029,CST-1368DR,8870,12412,15506,0.028,551
2019-06-28T02:40:32,42.805,6.029,CST-1368DR,8870,12412,15505,0.029,551
2019-06-28T02:43:33,42.805,6.029,CST-1368DR,8870,12411,15505,0.029,551
2019-06-28T02:46:35,42.805,6.029,CST-1368DR,8869,12312,15382,0.060,551
2019-06-28T02:49:36,42.805,6.029,CST-1368DR,8870,12414,15508,0.028,551
2019-06-28T02:52:38,42.805,6.029,CST-1368DR,8870,12411,15505,0.029,551
2019-06-28T02:55:39,42.805,6.029,CST-1368DR,8870,12408,15501,0.030,551
2019-06-28T02:58:40,42.805,6.029,CST-1368DR,8870,12408,15501,0.030,551
2019-06-28T03:01:42,42.805,6.029,CST-1368DR,8870,12412,15506,0.028,551
2019-06-28T03:04:43,42.805,6.029,CST-1368DR,8870,12406,15498,0.030,551
2019-06-28T03:07:45,42.805,6.029,CST-1368DR,8870,12412,15505,0.029,551
2019-06-28T03:10:46,42.805,6.029,CST-1368DR,8870,12408,15501,0.030,551
2019-06-28T03:13:47,42.805,6.029,CST-1368DR,8870,12412,15506,0.028,551
2019-06-28T03:16:49,42.805,6.029,CST-1368DR,8870,12412,15506,0.028,550
2019-06-28T03:19:50,42.805,6.029,CST-1368DR,8870,12411,15505,0.029,551
2019-06-28T03:22:52,42.805,6.029,CST-1368DR,8870,12411,15505,0.029,551
2019-06-28T03:25:53,42.805,6.029,CST-1368DR,8870,12412,15505,0.029,550
2019-06-28T03:28:55,42.805,6.029,CST-1368DR,8870,12411,15504,0.029,551
2019-06-28T03:31:56,42.805,6.029,CST-1368DR,8870,12404,15496,0.031,551
2019-06-28T03:34:57,42.805,6.029,CST-1368DR,8870,12410,15503,0.029,551
2019-06-28T03:37:59,42.805,6.029,CST-1368DR,8870,12411,15505,0.029,551
2019-06-28T03:41:00,42.805,6.029,CST-1368DR,8870,12408,15501,0.030,551
2019-06-28T03:44:02,42.805,6.029,CST-1368DR,8870,12411,15505,0.029,551
2019-06-28T03:47:03,42.805,6.029,CST-1368DR,8870,12410,15503,0.029,551
2019-06-28T03:50:04,42.805,6.029,CST-1368DR,8870,12410,15503,0.029,551
2019-06-28T03:53:06,42.805,6.029,CST-1368DR,8870,12410,15503,0.029,551
2019-06-28T03:56:07,42.805,6.029,CST-1368DR,8870,12411,15505,0.029,551
2019-06-28T03:59:09,42.805,6.029,CST-1368DR,8870,12410,15503,0.029,551
2019-06-28T04:02:10,42.805,6.029,CST-1368DR,8870,12409,15501,0.030,550
2019-06-28T04:05:11,42.805,6.029,CST-1368DR,8870,12408,15501,0.030,551
2019-06-28T04:08:13,42.805,6.029,CST-1368DR,8870,12411,15504,0.029,551
2019-06-28T04:11:14,42.805,6.029,CST-1368DR,8869,12408,15502,0.029,551
2019-06-28T04:14:16,42.805,6.029,CST-1368DR,8869,12412,15508,0.028,551
2019-06-28T04:17:17,42.805,6.029,CST-1368DR,8870,12409,15501,0.030,551
2019-06-28T04:20:18,42.805,6.029,CST-1368DR,8869,12407,15502,0.029,550
2019-06-28T04:23:20,42.805,6.029,CST-1368DR,8869,12412,15507,0.028,551
2019-06-28T04:26:21,42.805,6.029,CST-1368DR,8869,12400,15492,0.032,551
2019-06-28T04:29:23,42.805,6.029,CST-1368DR,8869,12406,15499,0.030,551
2019-06-28T04:32:24,42.805,6.029,CST-1368DR,8869,12405,15498,0.030,551
2019-06-28T04:35:26,42.805,6.029,CST-1368DR,8869,12408,15502,0.029,551
2019-06-28T04:38:27,42.805,6.029,CST-1368DR,8869,12411,15506,0.028,551
2019-06-28T04:41:28,42.805,6.029,CST-1368DR,8869,12411,15507,0.028,551
2019-06-28T04:44:30,42.805,6.029,CST-1368DR,8869,12411,15507,0.028,551
2019-06-28T04:47:31,42.805,6.029,CST-1368DR,8869,12410,15505,0.029,550
2019-06-28T04:50:33,42.805,6.029,CST-1368DR,8869,12411,15506,0.028,551
2019-06-28T04:53:34,42.805,6.029,CST-1368DR,8869,12410,15504,0.029,551
2019-06-28T04:56:35,42.805,6.029,CST-1368DR,8869,12410,15505,0.029,551
2019-06-28T04:59:37,42.805,6.029,CST-1368DR,8869,12411,15507,0.028,550
2019-06-28T05:02:38,42.805,6.029,CST-1368DR,8869,12410,15505,0.029,551
2019-06-28T05:05:40,42.805,6.029,CST-1368DR,8869,12396,15488,0.033,550
2019-06-28T05:08:41,42.805,6.029,CST-1368DR,8869,12412,15507,0.028,551
2019-06-28T05:11:42,42.805,6.029,CST-1368DR,8869,12408,15502,0.029,551
2019-06-28T05:14:44,42.805,6.029,CST-1368DR,8869,12407,15501,0.030,550
2019-06-28T05:17:45,42.805,6.029,CST-1368DR,8869,12397,15488,0.033,551
2019-06-28T05:20:47,42.805,6.029,CST-1368DR,8869,12410,15504,0.029,551
2019-06-28T05:23:48,42.805,6.029,CST-1368DR,8869,12408,15502,0.029,551
2019-06-28T05:26:50,42.805,6.029,CST-1368DR,8869,12411,15506,0.028,551
2019-06-28T05:29:51,42.805,6.029,CST-1368DR,8868,12399,15492,0.032,551
2019-06-28T05:32:52,42.805,6.029,CST-1368DR,8868,12409,15505,0.029,551
2019-06-28T05:35:54,42.805,6.029,CST-1368DR,8869,12409,15503,0.029,551
2019-06-28T05:38:55,42.805,6.029,CST-1368DR,8869,12410,15505,0.029,551
2019-06-28T05:41:57,42.805,6.029,CST-1368DR,8868,12410,15507,0.028,551
2019-06-28T05:44:58,42.805,6.029,CST-1368DR,8868,12408,15504,0.029,551
2019-06-28T05:47:59,42.805,6.029,CST-1368DR,8868,12411,15507,0.028,551
2019-06-28T05:51:01,42.805,6.029,CST-1368DR,8868,12408,15504,0.029,551
2019-06-28T05:54:02,42.805,6.029,CST-1368DR,8868,12409,15505,0.029,551
2019-06-28T05:57:04,42.805,6.029,CST-1368DR,8868,12409,15505,0.029,551
2019-06-28T06:00:05,42.805,6.029,CST-1368DR,8868,12408,15503,0.029,551
2019-06-28T06:03:06,42.805,6.029,CST-1368DR,8868,12404,15499,0.030,550
2019-06-28T06:06:08,42.805,6.029,CST-1368DR,8868,12410,15507,0.028,551
2019-06-28T06:09:09,42.805,6.029,CST-1368DR,8868,12407,15503,0.029,551
2019-06-28T06:12:11,42.805,6.029,CST-1368DR,8868,12404,15499,0.030,551
2019-06-28T06:15:12,42.805,6.029,CST-1368DR,8868,12408,15504,0.029,551
2019-06-28T06:18:13,42.805,6.029,CST-1368DR,8868,12407,15502,0.029,551
2019-06-28T06:21:15,42.805,6.029,CST-1368DR,8868,12408,15504,0.029,551
2019-06-28T06:24:16,42.805,6.029,CST-1368DR,8868,12408,15503,0.029,551
2019-06-28T06:27:18,42.805,6.029,CST-1368DR,8868,12390,15482,0.034,550
2019-06-28T06:30:19,42.805,6.029,CST-1368DR,8868,12408,15504,0.029,551
2019-06-28T06:33:21,42.805,6.029,CST-1368DR,8868,12410,15507,0.028,551
2019-06-28T06:36:22,42.805,6.029,CST-1368DR,8868,12410,15506,0.028,551
2019-06-28T06:39:23,42.805,6.029,CST-1368DR,8868,12403,15498,0.030,551
2019-06-28T06:42:25,42.805,6.029,CST-1368DR,8868,12408,15504,0.029,551
2019-06-28T06:45:26,42.805,6.029,CST-1368DR,8868,12404,15499,0.030,551
2019-06-28T06:48:28,42.805,6.029,CST-1368DR,8868,12408,15504,0.029,551
2019-06-28T06:51:29,42.805,6.029,CST-1368DR,8868,12409,15505,0.029,551
2019-06-28T06:54:30,42.805,6.029,CST-1368DR,8868,12405,15500,0.030,551
2019-06-28T06:57:32,42.805,6.029,CST-1368DR,8868,12402,15496,0.031,551
2019-06-28T07:00:33,42.805,6.029,CST-1368DR,8868,12406,15502,0.029,551
2019-06-28T07:03:35,42.805,6.029,CST-1368DR,8868,12408,15504,0.029,551
2019-06-28T07:06:36,42.805,6.029,CST-1368DR,8867,12392,15485,0.034,551
2019-06-28T07:09:37,42.805,6.029,CST-1368DR,8867,12401,15497,0.031,551
2019-06-28T07:12:39,42.805,6.029,CST-1368DR,8867,12407,15505,0.029,551
2019-06-28T07:15:40,42.805,6.029,CST-1368DR,8867,12405,15501,0.030,551
2019-06-28T07:18:42,42.805,6.029,CST-1368DR,8868,12410,15507,0.028,550
2019-06-28T07:21:43,42.805,6.029,CST-1368DR,8867,12410,15508,0.028,551
2019-06-28T07:24:44,42.805,6.029,CST-1368DR,8867,12405,15502,0.029,551
2019-06-28T07:27:46,42.805,6.029,CST-1368DR,8867,12409,15506,0.028,551
2019-06-28T07:30:47,42.805,6.029,CST-1368DR,8867,12406,15503,0.029,551
2019-06-28T07:33:49,42.805,6.029,CST-1368DR,8867,12410,15508,0.028,551
2019-06-28T07:36:50,42.805,6.029,CST-1368DR,8867,12408,15505,0.029,551
2019-06-28T07:39:52,42.805,6.029,CST-1368DR,8867,12405,15502,0.029,551
2019-06-28T07:42:53,42.805,6.029,CST-1368DR,8867,12410,15508,0.028,551
2019-06-28T07:45:54,42.805,6.029,CST-1368DR,8867,12404,15500,0.030,551
2019-06-28T07:48:56,42.805,6.029,CST-1368DR,8867,12408,15505,0.029,550
2019-06-28T07:51:57,42.805,6.029,CST-1368DR,8867,12409,15507,0.028,551
2019-06-28T07:54:59,42.805,6.029,CST-1368DR,8867,12408,15505,0.029,551
2019-06-28T07:58:00,42.805,6.029,CST-1368DR,8867,12408,15506,0.028,551
2019-06-28T08:01:01,42.805,6.029,CST-1368DR,8867,12408,15505,0.029,551
2019-06-28T08:04:03,42.805,6.029,CST-1368DR,8867,12404,15500,0.030,551
2019-06-28T08:07:04,42.805,6.029,CST-1368DR,8867,12405,15501,0.030,551
2019-06-28T08:10:06,42.805,6.029,CST-1368DR,8867,12386,15478,0.036,551
2019-06-28T08:13:07,42.805,6.029,CST-1368DR,8867,12410,15508,0.028,551
2019-06-28T08:16:08,42.805,6.029,CST-1368DR,8867,12409,15507,0.028,551
2019-06-28T08:19:10,42.805,6.029,CST-1368DR,8867,12408,15505,0.029,551
2019-06-28T08:22:11,42.805,6.029,CST-1368DR,8867,12409,15507,0.028,551
2019-06-28T08:25:13,42.805,6.029,CST-1368DR,8867,12411,15509,0.028,551
2019-06-28T08:28:14,42.805,6.029,CST-1368DR,8867,12410,15508,0.028,551
2019-06-28T08:31:16,42.805,6.029,CST-1368DR,8867,12411,15509,0.028,551
2019-06-28T08:34:17,42.805,6.029,CST-1368DR,8867,12410,15508,0.028,551
2019-06-28T08:37:18,42.805,6.029,CST-1368DR,8867,12408,15506,0.028,551
2019-06-28T08:40:20,42.805,6.029,CST-1368DR,8867,12410,15508,0.028,551
2019-06-28T08:43:21,42.805,6.029,CST-1368DR,8867,12404,15501,0.030,551
2019-06-28T08:46:23,42.805,6.029,CST-1368DR,8867,12410,15508,0.028,551
2019-06-28T08:49:24,42.805,6.029,CST-1368DR,8867,12410,15508,0.028,550
2019-06-28T08:52:25,42.805,6.029,CST-1368DR,8867,12408,15506,0.028,551
2019-06-28T08:55:27,42.805,6.029,CST-1368DR,8867,12406,15503,0.029,551
2019-06-28T08:58:28,42.805,6.029,CST-1368DR,8867,12407,15504,0.029,551
2019-06-28T09:01:30,42.805,6.029,CST-1368DR,8867,12405,15502,0.029,551
2019-06-28T09:04:31,42.805,6.029,CST-1368DR,8867,12410,15508,0.028,551
2019-06-28T09:07:32,42.805,6.029,CST-1368DR,8866,12409,15508,0.028,551
2019-06-28T09:10:34,42.805,6.029,CST-1368DR,8866,12410,15510,0.027,551
2019-06-28T09:13:35,42.805,6.029,CST-1368DR,8866,12407,15506,0.028,550
2019-06-28T09:16:37,42.805,6.029,CST-1368DR,8867,12411,15509,0.028,551
2019-06-28T09:19:38,42.805,6.029,CST-1368DR,8866,12411,15510,0.027,551
2019-06-28T09:22:39,42.805,6.029,CST-1368DR,8866,12410,15509,0.028,551
2019-06-28T09:25:41,42.805,6.029,CST-1368DR,8866,12411,15511,0.027,551
2019-06-28T09:28:42,42.805,6.029,CST-1368DR,8866,12410,15510,0.027,551
2019-06-28T09:31:44,42.805,6.029,CST-1368DR,8866,12409,15508,0.028,551
2019-06-28T09:34:45,42.805,6.029,CST-1368DR,8866,12409,15508,0.028,551
2019-06-28T09:37:47,42.805,6.029,CST-1368DR,8866,12409,15509,0.028,551
2019-06-28T09:40:48,42.805,6.029,CST-1368DR,8866,12405,15503,0.029,551
2019-06-28T09:43:49,42.805,6.029,CST-1368DR,8866,12410,15509,0.028,551
2019-06-28T09:46:51,42.805,6.029,CST-1368DR,8866,12407,15506,0.028,551
2019-06-28T09:49:52,42.805,6.029,CST-1368DR,8866,12409,15509,0.028,551
2019-06-28T09:52:54,42.805,6.029,CST-1368DR,8866,12410,15509,0.028,551
2019-06-28T09:55:55,42.805,6.029,CST-1368DR,8866,12410,15510,0.027,551
2019-06-28T09:58:56,42.805,6.029,CST-1368DR,8866,12408,15508,0.028,551
2019-06-28T10:01:58,42.805,6.029,CST-1368DR,8866,12409,15508,0.028,551
2019-06-28T10:04:59,42.805,6.029,CST-1368DR,8866,12408,15508,0.028,551
2019-06-28T10:08:01,42.805,6.029,CST-1368DR,8866,12409,15509,0.028,551
2019-06-28T10:11:02,42.805,6.029,CST-1368DR,8866,12400,15498,0.030,550
2019-06-28T10:14:03,42.805,6.029,CST-1368DR,8866,12405,15503,0.029,551
2019-06-28T10:17:05,42.805,6.029,CST-1368DR,8866,12407,15506,0.028,551
2019-06-28T10:20:06,42.805,6.029,CST-1368DR,8866,12406,15504,0.029,551
2019-06-28T10:23:08,42.805,6.029,CST-1368DR,8866,12410,15509,0.028,551
2019-06-28T10:26:09,42.805,6.029,CST-1368DR,8866,12407,15505,0.029,551
2019-06-28T10:29:10,42.805,6.029,CST-1368DR,8866,12408,15507,0.028,551
2019-06-28T10:32:12,42.805,6.029,CST-1368DR,8866,12405,15503,0.029,551
2019-06-28T10:35:13,42.805,6.029,CST-1368DR,8865,12409,15509,0.028,550
2019-06-28T10:38:15,42.805,6.029,CST-1368DR,8865,12409,15510,0.027,551
2019-06-28T10:41:16,42.805,6.029,CST-1368DR,8865,12408,15508,0.028,551
2019-06-28T10:44:18,42.805,6.029,CST-1368DR,8865,12407,15507,0.028,550
2019-06-28T10:47:19,42.805,6.029,CST-1368DR,8865,12408,15508,0.028,551
2019-06-28T10:50:20,42.805,6.029,CST-1368DR,8865,12408,15509,0.028,550
2019-06-28T10:53:22,42.805,6.029,CST-1368DR,8865,12409,15509,0.028,551
2019-06-28T10:56:23,42.805,6.029,CST-1368DR,8865,12410,15511,0.027,551
2019-06-28T10:59:25,42.805,6.029,CST-1368DR,8865,12408,15509,0.028,551
2019-06-28T11:02:26,42.805,6.029,CST-1368DR,8865,12410,15511,0.027,551
2019-06-28T11:05:27,42.805,6.029,CST-1368DR,8865,12408,15509,0.028,551
2019-06-28T11:08:29,42.805,6.029,CST-1368DR,8865,12407,15508,0.028,551
2019-06-28T11:11:30,42.805,6.029,CST-1368DR,8865,12408,15508,0.028,551
2019-06-28T11:14:32,42.805,6.029,CST-1368DR,8865,12408,15508,0.028,551
2019-06-28T11:17:33,42.805,6.029,CST-1368DR,8865,12404,15504,0.029,551
2019-06-28T11:20:34,42.805,6.029,CST-1368DR,8865,12404,15504,0.029,551
2019-06-28T11:23:36,42.805,6.029,CST-1368DR,8865,12405,15505,0.029,551
2019-06-28T11:26:37,42.805,6.029,CST-1368DR,8865,12407,15507,0.028,551
2019-06-28T11:29:39,42.805,6.029,CST-1368DR,8865,12402,15501,0.030,551
2019-06-28T11:32:40,42.805,6.029,CST-1368DR,8865,12407,15508,0.028,551
2019-06-28T11:35:41,42.805,6.029,CST-1368DR,8865,12407,15507,0.028,551
2019-06-28T11:38:43,42.805,6.029,CST-1368DR,8865,12407,15508,0.028,551
2019-06-28T11:41:44,42.805,6.029,CST-1368DR,8865,12398,15496,0.031,551
2019-06-28T11:44:46,42.805,6.029,CST-1368DR,8865,12407,15508,0.028,551
2019-06-28T11:47:47,42.805,6.029,CST-1368DR,8865,12406,15506,0.028,551
2019-06-28T11:50:49,42.805,6.029,CST-1368DR,8865,12406,15507,0.028,551
2019-06-28T11:53:50,42.805,6.029,CST-1368DR,8865,12406,15506,0.028,551
2019-06-28T11:56:51,42.805,6.029,CST-1368DR,8864,12393,15492,0.032,551
2019-06-28T11:59:53,42.805,6.029,CST-1368DR,8865,12407,15507,0.028,551
2019-06-28T12:02:54,42.805,6.029,CST-1368DR,8864,12407,15510,0.027,550
2019-06-28T12:05:56,42.805,6.029,CST-1368DR,8864,12403,15505,0.029,551
2019-06-28T12:08:57,42.805,6.029,CST-1368DR,8864,12409,15512,0.027,551
2019-06-28T12:11:58,42.805,6.029,CST-1368DR,8864,12406,15508,0.028,551
2019-06-28T12:15:00,42.805,6.029,CST-1368DR,8864,12402,15502,0.029,551
2019-06-28T12:18:01,42.805,6.029,CST-1368DR,8864,12407,15509,0.028,551
2019-06-28T12:21:03,42.805,6.029,CST-1368DR,8864,12394,15493,0.032,551
2019-06-28T12:24:04,42.805,6.029,CST-1368DR,8864,12405,15506,0.028,551
2019-06-28T12:27:05,42.805,6.029,CST-1368DR,8864,12405,15507,0.028,551
2019-06-28T12:30:07,42.805,6.029,CST-1368DR,8864,12407,15510,0.027,551
2019-06-28T12:33:08,42.805,6.029,CST-1368DR,8864,12404,15506,0.028,551
2019-06-28T12:36:10,42.805,6.029,CST-1368DR,8864,12406,15508,0.028,551
2019-06-28T12:39:11,42.805,6.029,CST-1368DR,8864,12404,15505,0.029,551
2019-06-28T12:42:12,42.805,6.029,CST-1368DR,8864,12404,15506,0.028,551
2019-06-28T12:45:14,42.805,6.029,CST-1368DR,8864,12408,15510,0.027,551
2019-06-28T12:48:15,42.805,6.029,CST-1368DR,8864,12404,15505,0.029,551
2019-06-28T12:51:17,42.805,6.029,CST-1368DR,8864,12407,15509,0.028,551
2019-06-28T12:54:18,42.805,6.029,CST-1368DR,8864,12407,15509,0.028,550
2019-06-28T12:57:20,42.805,6.029,CST-1368DR,8864,12404,15505,0.029,551
2019-06-28T13:00:21,42.805,6.029,CST-1368DR,8864,12404,15506,0.028,551
2019-06-28T13:03:22,42.805,6.029,CST-1368DR,8864,12404,15505,0.029,551
2019-06-28T13:06:24,42.805,6.029,CST-1368DR,8864,12407,15509,0.028,551
2019-06-28T13:09:25,42.805,6.029,CST-1368DR,8864,12396,15495,0.031,551
2019-06-28T13:12:27,42.805,6.029,CST-1368DR,8864,12401,15502,0.029,551
2019-06-28T13:15:28,42.805,6.029,CST-1368DR,8864,12406,15507,0.028,551
2019-06-28T13:18:29,42.805,6.029,CST-1368DR,8864,12402,15502,0.029,551
2019-06-28T13:21:31,42.805,6.029,CST-1368DR,8864,12407,15510,0.027,551
2019-06-28T13:24:32,42.805,6.029,CST-1368DR,8864,12401,15502,0.029,551
2019-06-28T13:27:34,42.805,6.029,CST-1368DR,8864,12406,15508,0.028,551
2019-06-28T13:30:35,42.805,6.029,CST-1368DR,8864,12405,15507,0.028,551
2019-06-28T13:33:36,42.805,6.029,CST-1368DR,8864,12408,15511,0.027,551
2019-06-28T13:36:38,42.805,6.029,CST-1368DR,8864,12406,15507,0.028,550
2019-06-28T13:39:39,42.805,6.029,CST-1368DR,8864,12406,15508,0.028,550
2019-06-28T13:42:41,42.805,6.029,CST-1368DR,8864,12406,15508,0.028,551
2019-06-28T13:45:42,42.805,6.029,CST-1368DR,8864,12405,15507,0.028,551
2019-06-28T13:48:44,42.805,6.029,CST-1368DR,8864,12403,15505,0.029,551
2019-06-28T13:51:45,42.805,6.029,CST-1368DR,8864,12406,15508,0.028,551
2019-06-28T13:54:46,42.805,6.029,CST-1368DR,8864,12407,15509,0.028,551
2019-06-28T13:57:48,42.805,6.029,CST-1368DR,8864,12405,15506,0.028,550
2019-06-28T14:00:49,42.805,6.029,CST-1368DR,8864,12407,15509,0.028,551
2019-06-28T14:03:51,42.805,6.029,CST-1368DR,8864,12405,15507,0.028,550
2019-06-28T14:06:52,42.805,6.029,CST-1368DR,8864,12399,15499,0.030,551
2019-06-28T14:09:53,42.805,6.029,CST-1368DR,8864,12406,15508,0.028,551
2019-06-28T14:12:55,42.805,6.029,CST-1368DR,8863,12402,15505,0.029,551
2019-06-28T14:15:56,42.805,6.029,CST-1368DR,8863,12404,15507,0.028,551
2019-06-28T14:18:58,42.805,6.029,CST-1368DR,8863,12404,15507,0.028,551
2019-06-28T14:21:59,42.805,6.029,CST-1368DR,8863,12405,15508,0.028,551
2019-06-28T14:25:00,42.805,6.029,CST-1368DR,8863,12404,15507,0.028,551
2019-06-28T14:28:02,42.805,6.029,CST-1368DR,8863,12402,15505,0.029,551
2019-06-28T14:31:03,42.805,6.029,CST-1368DR,8863,12398,15499,0.030,550
2019-06-28T14:34:05,42.805,6.029,CST-1368DR,8863,12404,15507,0.028,551
2019-06-28T14:37:06,42.805,6.029,CST-1368DR,8863,12404,15506,0.028,551
2019-06-28T14:40:07,42.805,6.029,CST-1368DR,8863,12404,15507,0.028,551
2019-06-28T14:43:09,42.805,6.029,CST-1368DR,8863,12401,15503,0.029,551
2019-06-28T14:46:10,42.805,6.029,CST-1368DR,8863,12398,15500,0.030,551
2019-06-28T14:49:12,42.805,6.029,CST-1368DR,8863,12404,15507,0.028,551
2019-06-28T14:52:13,42.805,6.029,CST-1368DR,8863,12404,15506,0.028,551
2019-06-28T14:55:15,42.805,6.029,CST-1368DR,8863,12403,15506,0.028,551
2019-06-28T14:58:16,42.805,6.029,CST-1368DR,8863,12401,15504,0.029,551
2019-06-28T15:01:17,42.805,6.029,CST-1368DR,8863,12365,15458,0.041,551
2019-06-28T15:04:19,42.805,6.029,CST-1368DR,8863,12403,15506,0.028,551
2019-06-28T15:07:20,42.805,6.029,CST-1368DR,8863,12375,15471,0.037,551
2019-06-28T15:10:22,42.805,6.029,CST-1368DR,8863,12391,15490,0.032,551
2019-06-28T15:13:23,42.805,6.029,CST-1368DR,8863,12398,15500,0.030,551
2019-06-28T15:16:24,42.805,6.029,CST-1368DR,8863,12402,15504,0.029,551
2019-06-28T15:19:26,42.805,6.029,CST-1368DR,8863,12401,15504,0.029,551
2019-06-28T15:22:27,42.805,6.029,CST-1368DR,8863,12400,15502,0.029,551
2019-06-28T15:25:29,42.805,6.029,CST-1368DR,8863,12398,15500,0.030,551
2019-06-28T15:28:30,42.805,6.029,CST-1368DR,8863,12402,15504,0.029,550
2019-06-28T15:31:31,42.805,6.029,CST-1368DR,8863,12392,15491,0.032,551
2019-06-28T15:34:33,42.805,6.029,CST-1368DR,8863,12398,15499,0.030,551
2019-06-28T15:37:34,42.805,6.029,CST-1368DR,8863,12401,15504,0.029,551
2019-06-28T15:40:36,42.805,6.029,CST-1368DR,8863,12399,15501,0.030,551
2019-06-28T15:43:37,42.805,6.029,CST-1368DR,8863,12401,15503,0.029,551
2019-06-28T15:46:38,42.805,6.029,CST-1368DR,8863,12403,15506,0.028,550
2019-06-28T15:49:40,42.805,6.029,CST-1368DR,8862,12397,15500,0.030,550
2019-06-28T15:52:41,42.805,6.029,CST-1368DR,8863,12400,15502,0.029,551
2019-06-28T15:55:43,42.805,6.029,CST-1368DR,8863,12401,15503,0.029,551
2019-06-28T15:58:44,42.805,6.029,CST-1368DR,8862,12401,15505,0.029,551
2019-06-28T16:01:46,42.805,6.029,CST-1368DR,8862,12401,15505,0.029,551
2019-06-28T16:04:47,42.805,6.029,CST-1368DR,8862,12401,15505,0.029,551
2019-06-28T16:07:48,42.805,6.029,CST-1368DR,8862,12401,15505,0.029,551
2019-06-28T16:10:50,42.805,6.029,CST-1368DR,8862,12399,15502,0.029,551
2019-06-28T16:13:51,42.805,6.029,CST-1368DR,8862,12398,15502,0.029,551
2019-06-28T16:16:53,42.805,6.029,CST-1368DR,8862,12397,15500,0.030,551
2019-06-28T16:19:54,42.805,6.029,CST-1368DR,8862,12394,15496,0.031,551
2019-06-28T16:22:55,42.805,6.029,CST-1368DR,8862,12400,15504,0.029,551
2019-06-28T16:25:57,42.805,6.029,CST-1368DR,8862,12399,15502,0.029,551
2019-06-28T16:28:58,42.805,6.029,CST-1368DR,8862,12400,15504,0.029,551
2019-06-28T16:32:00,42.805,6.029,CST-1368DR,8862,12397,15500,0.030,550
2019-06-28T16:35:01,42.805,6.029,CST-1368DR,8862,12399,15502,0.029,551